Wind_Speed
13 13 12 11 12 11 11 11 10 10 10 10 10 11 11 11 11 11 11 10 11 11 11 11 11 11 10 10 10 11 11 11 12 12 12 13 13 13 13 13 13 13 13
13 12 11 11 11 12 11 11 11 11 10 11 11 11 11 11 11 11 11 11 11 11 11 11 11 11 11 11 11 12 12 12 13 13 14 14 14 13 13 13 13 13 13
11 11 11 11 11 11 11 11 11 12 12 12 12 11 11 11 11 10 11 11 11 11 11 11 11 11 11 11 12 13 12 12 13 14 14 14 13 13 13 13 13 13 12
11 12 12 11 11 11 11 11 12 12 12 13 12 12 12 11 11 11 11 11 11 11 11 11 11 11 11 12 12 13 13 13 14 14 14 14 13 14 13 13 13 12 12
12 12 12 12 12 11 11 12 11 11 12 12 12 12 12 11 11 11 12 12 12 11 11 12 12 12 12 12 12 13 13 13 14 14 14 14 14 14 14 14 14 14 13
12 12 12 12 12 12 11 12 12 11 11 11 12 12 11 12 12 12 12 12 12 12 12 12 13 13 13 13 13 13 13 12 13 14 14 14 14 13 13 14 14 15 15
13 12 12 12 12 12 12 11 11 11 11 11 11 12 12 12 12 12 12 12 13 13 13 13 13 14 14 14 14 13 13 13 14 14 14 14 13 13 14 14 14 14 14
13 12 12 12 12 13 13 12 11 11 11 12 12 13 13 13 13 13 13 13 13 13 13 13 13 13 13 14 13 13 14 14 14 14 14 13 13 13 14 14 14 14 14
12 12 12 12 12 12 13 12 12 12 12 13 13 13 13 13 13 13 13 13 14 13 13 14 13 12 13 13 14 14 15 15 14 13 13 13 14 14 14 14 14 14 14
13 12 13 13 13 13 14 14 14 14 14 14 14 14 13 14 14 14 14 14 14 14 14 14 13 12 13 14 14 14 14 14 13 14 14 14 15 15 15 15 15 15 15
14 14 14 14 14 14 14 14 15 15 15 15 15 15 14 15 15 14 14 14 14 14 14 14 13 13 12 13 13 14 14 14 14 14 15 15 15 15 15 15 15 15 15
15 14 14 14 14 14 14 14 15 15 16 17 16 15 15 15 15 15 14 14 14 14 13 13 13 13 13 13 14 14 14 15 15 14 15 15 15 15 15 15 15 15 15
16 15 14 14 14 14 15 15 16 16 16 16 16 16 17 16 16 15 15 14 14 14 14 14 13 13 14 14 15 15 15 15 15 15 15 15 15 15 15 16 16 15 15
16 15 15 15 14 14 14 14 15 15 15 15 16 16 16 16 15 15 14 15 15 15 15 15 15 14 15 15 16 16 16 15 15 15 15 15 15 15 16 17 17 16 15
17 16 16 16 15 14 14 15 15 15 15 15 15 15 15 15 15 15 15 16 16 16 16 17 17 16 16 16 17 17 17 16 15 15 16 16 16 16 16 17 18 17 17
19 18 17 17 16 15 15 16 15 15 15 16 16 16 16 16 16 16 16 16 16 17 17 17 17 17 17 18 18 18 17 17 16 16 16 16 16 16 17 18 18 18 18
20 19 18 18 18 17 16 17 16 16 16 16 17 17 17 17 17 16 16 16 16 17 17 17 17 18 18 18 17 17 16 16 17 17 16 16 16 17 18 18 18 18 19
21 20 20 19 19 18 17 18 17 17 17 17 17 16 17 18 18 17 17 17 17 17 17 17 17 17 17 17 17 17 17 17 17 17 17 17 17 18 19 19 18 18 18
20 20 19 18 18 18 18 18 18 18 17 17 17 17 18 19 19 19 18 18 18 18 18 18 17 17 18 18 18 18 18 18 17 17 17 17 18 18 18 18 18 18 18
21 20 20 20 20 20 19 19 19 19 18 18 18 18 18 18 20 20 19 19 19 19 19 19 18 18 18 19 19 19 19 18 18 19 19 19 18 18 18 18 18 19 19
22 22 22 22 22 22 22 21 21 21 20 20 19 19 19 19 20 20 20 20 20 19 19 19 19 19 19 19 19 19 19 19 19 20 20 20 20 19 19 19 19 19 19
24 24 24 23 23 23 23 23 23 22 22 22 21 21 21 21 21 21 20 20 20 19 19 19 20 20 19 19 20 20 20 20 20 21 21 20 20 19 19 19 19 19 20
25 26 26 26 25 25 25 25 25 25 24 23 22 22 22 22 22 22 21 21 21 20 20 20 20 20 20 19 19 20 20 20 20 21 22 21 21 20 20 20 20 20 20
26 26 26 26 26 25 26 27 27 27 26 25 24 24 23 22 22 22 22 22 21 21 22 21 21 20 20 19 20 20 19 19 20 21 21 21 21 20 20 20 20 20 20
26 26 25 26 27 26 26 26 27 27 27 26 26 25 24 23 24 23 23 22 22 22 22 22 22 21 20 20 20 19 19 19 20 20 20 20 20 20 20 20 20 20 21
26 26 26 25 25 26 26 26 25 27 27 26 25 25 25 24 24 24 24 23 23 23 23 23 23 22 22 21 21 21 20 20 19 19 19 19 20 21 20 20 20 20 20
Wind_Direction
289 290 291 289 289 284 275 268 266 264 262 261 258 257 256 252 250 252 254 257 258 258 260 260 263 268 268 268 271 273 271 268 268 270 273 276 276 277 271 267 267 269 268
284 289 290 285 283 282 276 270 264 263 262 259 255 255 254 251 249 249 253 256 257 257 262 266 265 269 267 271 275 276 273 271 272 272 273 275 274 275 270 268 267 268 267
284 284 287 283 279 278 273 270 265 262 260 257 254 254 254 250 249 248 251 254 257 260 265 267 267 268 267 270 276 279 278 275 275 273 272 274 270 271 272 270 269 268 266
284 285 284 284 280 276 271 267 269 261 258 257 257 256 255 252 248 246 251 256 258 260 262 264 268 270 270 272 276 279 279 277 279 276 272 271 271 268 268 269 270 270 268
283 285 284 282 278 273 268 270 271 262 260 256 254 254 255 253 249 247 250 253 257 261 264 266 267 269 270 271 274 277 277 279 281 278 274 273 271 268 265 266 269 271 270
278 281 282 279 276 271 267 269 269 266 262 260 256 254 255 254 252 247 247 251 257 261 264 268 268 269 269 269 272 274 275 278 281 279 277 274 273 269 267 266 268 271 272
281 281 280 277 274 269 269 267 267 269 264 262 260 259 257 254 251 250 250 252 257 260 264 268 270 270 270 269 273 273 275 280 281 279 276 271 271 270 268 266 268 270 273
286 283 278 273 269 265 264 262 263 266 263 263 263 261 256 254 251 253 254 254 257 260 263 267 269 269 268 268 271 274 277 281 280 277 274 272 270 271 270 269 271 271 272
284 281 275 270 266 264 264 260 261 264 262 262 260 259 257 255 252 253 255 256 258 261 265 269 270 268 269 269 270 273 275 279 277 276 276 274 270 269 271 272 273 273 273
288 283 275 272 267 265 261 259 260 260 261 261 259 259 257 256 252 252 253 256 259 260 265 269 271 269 269 269 271 272 272 275 275 276 277 275 271 270 270 273 274 275 274
289 286 279 273 270 268 264 260 260 260 261 260 259 257 256 256 252 250 251 255 258 260 262 267 270 270 271 270 271 272 272 274 275 276 277 275 272 270 269 272 272 272 273
290 285 278 274 273 271 267 264 262 260 261 261 256 255 254 252 250 250 250 254 257 259 262 268 271 272 272 271 272 271 271 272 274 276 276 274 271 269 269 270 271 272 273
287 282 275 271 271 269 268 267 265 261 259 258 255 253 252 252 249 246 249 254 256 260 265 267 269 272 272 272 274 273 272 272 275 277 278 274 270 266 267 270 272 271 271
284 279 274 274 273 271 270 269 266 262 260 254 250 248 248 247 249 249 252 256 257 260 265 266 268 270 273 273 275 273 272 273 274 274 274 274 271 267 267 268 270 270 272
282 278 276 272 270 269 267 266 262 259 257 252 245 244 244 245 249 250 254 258 258 260 263 268 269 270 271 274 275 273 272 273 274 274 274 275 272 269 268 270 270 270 272
277 274 273 268 264 262 265 263 258 256 253 249 246 248 248 248 250 251 255 259 258 262 267 271 270 269 270 272 274 271 269 270 271 274 275 274 273 271 270 271 271 271 273
275 272 271 269 266 262 264 266 264 261 257 253 251 251 251 250 250 253 258 260 262 265 267 270 270 271 272 274 276 272 273 269 270 270 273 274 272 271 271 271 271 272 273
273 274 273 268 266 264 265 263 260 261 261 259 257 255 253 252 252 255 257 259 261 264 267 269 271 272 273 274 275 274 276 273 270 269 270 272 274 274 274 273 273 274 275
274 275 274 272 266 263 264 261 258 258 259 258 255 255 256 255 255 256 258 260 263 266 268 270 272 272 271 272 273 273 276 275 274 270 270 272 274 276 276 275 276 276 277
273 273 271 270 266 263 262 262 260 257 256 257 256 255 256 256 256 256 258 260 264 266 267 267 269 270 270 273 275 275 275 274 274 272 271 272 273 275 277 277 276 276 276
267 268 269 269 266 262 261 260 259 257 256 256 256 253 254 255 255 256 257 260 264 267 268 268 269 269 269 273 275 275 274 275 274 274 273 272 272 274 274 274 275 275 274
267 266 268 268 264 260 258 259 258 257 255 254 255 254 252 254 255 256 258 261 264 267 268 270 270 269 269 271 273 274 275 276 275 274 273 271 270 272 272 271 274 276 274
268 266 266 266 265 261 259 258 257 257 255 253 254 256 255 253 255 256 259 262 264 266 269 271 270 269 271 271 272 275 276 275 275 273 271 269 268 269 269 269 271 274 274
269 268 268 267 264 263 261 259 257 255 254 253 253 255 256 256 257 258 260 263 265 265 269 272 269 269 268 268 271 276 277 275 274 273 269 267 267 268 269 270 270 272 272
270 270 269 267 263 262 261 260 258 255 251 250 250 251 252 253 255 257 260 262 264 265 266 267 267 266 266 267 270 275 277 276 274 273 271 268 268 269 271 271 271 272 273
271 271 268 267 265 263 263 262 259 255 250 247 247 250 251 252 253 256 259 262 265 266 266 266 265 265 265 266 269 271 274 275 273 273 273 270 268 269 270 270 270 271 272
Height
5835 5835 5834 5833 5833 5833 5832 5833 5833 5834 5834 5835 5835 5836 5837 5837 5838 5838 5839 5840 5841 5841 5842 5843 5843 5843 5843 5844 5844 5844 5844 5844 5844 5845 5845 5845 5844 5845 5845 5845 5845 5845 5846
5832 5831 5831 5830 5830 5829 5829 5829 5830 5831 5831 5832 5832 5833 5834 5835 5835 5836 5837 5837 5838 5839 5839 5840 5840 5840 5840 5841 5841 5841 5841 5841 5841 5841 5841 5841 5842 5841 5841 5841 5842 5842 5842
5829 5828 5828 5827 5826 5826 5826 5827 5827 5828 5828 5828 5829 5830 5831 5832 5833 5833 5834 5835 5835 5836 5836 5837 5837 5837 5838 5838 5838 5838 5838 5838 5838 5838 5838 5838 5838 5838 5838 5838 5838 5838 5838
5826 5825 5824 5824 5823 5823 5823 5824 5824 5824 5824 5825 5826 5827 5828 5829 5830 5830 5831 5832 5833 5833 5833 5834 5834 5835 5835 5835 5835 5835 5835 5834 5834 5834 5834 5834 5835 5835 5835 5835 5835 5835 5835
5823 5822 5821 5821 5820 5820 5821 5821 5821 5821 5821 5822 5823 5824 5825 5826 5826 5827 5828 5829 5830 5830 5831 5831 5831 5832 5832 5832 5832 5832 5831 5831 5831 5830 5830 5830 5830 5831 5831 5831 5831 5831 5831
5820 5819 5818 5818 5817 5817 5817 5817 5817 5817 5818 5819 5820 5821 5822 5823 5824 5824 5825 5826 5826 5827 5828 5828 5828 5828 5828 5828 5828 5828 5828 5828 5827 5827 5827 5827 5827 5827 5827 5827 5827 5827 5828
5817 5816 5815 5814 5814 5814 5814 5814 5814 5814 5815 5816 5817 5818 5819 5820 5821 5821 5822 5823 5823 5824 5824 5824 5824 5824 5824 5825 5825 5825 5825 5824 5824 5823 5823 5823 5823 5823 5823 5823 5824 5824 5824
5813 5812 5811 5811 5810 5810 5811 5811 5811 5812 5812 5813 5814 5815 5816 5817 5817 5818 5819 5819 5820 5820 5821 5821 5821 5821 5821 5821 5822 5821 5821 5821 5820 5820 5819 5819 5819 5819 5819 5820 5820 5820 5820
5809 5809 5808 5807 5807 5807 5807 5807 5808 5808 5809 5810 5811 5811 5812 5813 5814 5815 5815 5816 5816 5817 5817 5817 5817 5817 5818 5818 5818 5818 5818 5817 5817 5816 5816 5816 5816 5816 5816 5816 5816 5816 5816
5806 5805 5804 5804 5804 5804 5804 5804 5804 5804 5805 5806 5806 5807 5808 5809 5810 5811 5812 5812 5813 5813 5813 5814 5814 5814 5814 5815 5814 5814 5814 5813 5813 5812 5812 5812 5812 5812 5812 5812 5812 5812 5812
5802 5801 5800 5800 5799 5800 5800 5800 5800 5800 5801 5801 5802 5803 5804 5805 5806 5807 5808 5808 5809 5809 5810 5810 5810 5811 5811 5811 5811 5811 5810 5810 5809 5808 5808 5808 5808 5808 5808 5808 5808 5808 5808
5798 5797 5796 5795 5795 5795 5795 5795 5795 5795 5796 5796 5797 5799 5800 5801 5802 5803 5803 5804 5805 5806 5807 5807 5807 5807 5807 5807 5807 5807 5806 5806 5805 5805 5804 5804 5803 5803 5803 5804 5804 5804 5804
5793 5792 5791 5791 5790 5790 5790 5790 5790 5790 5791 5792 5793 5794 5795 5796 5797 5799 5799 5800 5801 5802 5803 5803 5803 5803 5803 5803 5803 5803 5802 5802 5801 5801 5800 5800 5799 5799 5799 5799 5799 5799 5799
5788 5787 5787 5786 5785 5785 5785 5785 5785 5786 5786 5787 5789 5790 5791 5792 5793 5794 5795 5796 5798 5798 5799 5800 5800 5799 5799 5799 5799 5798 5798 5798 5797 5796 5796 5796 5795 5795 5795 5795 5795 5795 5795
5783 5782 5782 5781 5781 5781 5781 5781 5781 5781 5782 5783 5784 5785 5786 5788 5789 5790 5791 5792 5793 5794 5795 5795 5795 5795 5795 5795 5794 5794 5793 5793 5792 5792 5791 5791 5791 5791 5791 5791 5790 5790 5790
5778 5777 5777 5776 5776 5776 5777 5776 5776 5777 5778 5778 5779 5781 5782 5783 5785 5786 5787 5788 5789 5790 5790 5790 5790 5790 5790 5790 5789 5789 5788 5788 5788 5787 5787 5786 5786 5786 5786 5786 5786 5786 5786
5772 5771 5771 5771 5771 5771 5772 5772 5773 5773 5774 5774 5775 5776 5777 5779 5780 5782 5783 5784 5784 5785 5785 5786 5785 5785 5785 5785 5784 5783 5783 5783 5783 5782 5782 5782 5782 5781 5781 5781 5780 5780 5780
5766 5766 5765 5765 5766 5766 5767 5767 5768 5769 5769 5770 5770 5771 5773 5774 5776 5777 5778 5779 5779 5780 5780 5781 5780 5780 5780 5780 5779 5779 5778 5778 5778 5777 5777 5777 5777 5776 5776 5775 5775 5775 5775
5760 5760 5760 5760 5760 5761 5761 5762 5763 5764 5765 5766 5766 5767 5768 5769 5771 5772 5773 5774 5774 5775 5775 5775 5775 5775 5775 5775 5774 5774 5774 5773 5773 5773 5772 5772 5771 5771 5770 5770 5770 5770 5770
5754 5754 5754 5755 5755 5756 5756 5757 5758 5759 5760 5760 5761 5762 5763 5764 5765 5766 5767 5768 5769 5769 5770 5770 5770 5770 5770 5770 5769 5769 5769 5768 5768 5767 5767 5767 5766 5766 5765 5765 5765 5765 5765
5747 5747 5748 5748 5749 5750 5750 5751 5752 5753 5754 5755 5756 5756 5757 5758 5759 5760 5761 5762 5763 5764 5764 5764 5765 5764 5764 5764 5764 5763 5763 5763 5762 5762 5762 5761 5761 5760 5760 5760 5760 5760 5760
5740 5740 5741 5741 5742 5743 5744 5745 5746 5747 5748 5749 5750 5751 5752 5753 5753 5755 5755 5756 5757 5758 5758 5758 5759 5759 5758 5758 5758 5758 5757 5756 5756 5756 5755 5755 5755 5755 5754 5754 5754 5754 5754
5732 5732 5733 5733 5734 5735 5736 5737 5738 5739 5740 5742 5743 5744 5745 5746 5748 5749 5750 5751 5751 5751 5752 5752 5753 5753 5753 5752 5752 5751 5750 5749 5749 5748 5749 5749 5749 5749 5749 5748 5748 5748 5748
5724 5724 5725 5725 5726 5727 5728 5729 5730 5731 5733 5734 5736 5737 5738 5739 5741 5742 5744 5745 5745 5745 5746 5746 5746 5746 5746 5746 5746 5745 5744 5743 5742 5742 5742 5743 5742 5742 5742 5742 5742 5742 5742
5716 5716 5717 5717 5718 5719 5719 5720 5721 5722 5724 5726 5728 5730 5731 5733 5734 5735 5737 5738 5738 5739 5739 5740 5740 5740 5740 5740 5740 5739 5738 5737 5737 5736 5737 5737 5737 5737 5736 5736 5736 5736 5736
5708 5708 5708 5709 5710 5710 5711 5711 5712 5714 5716 5718 5720 5722 5723 5725 5727 5728 5730 5730 5731 5732 5732 5733 5733 5733 5734 5734 5734 5734 5733 5732 5732 5732 5731 5731 5731 5731 5731 5730 5730 5730 5730